x

East Hatteras - 150 Nm East Of Cape Hatteras (41001) Weather Station

10:00am - Thu 11th Feb 2016 All times are EST. -5 hours from GMT.

  • Wind
    29mph, 40mph gusts
  • Sea Temp 69°f
  • 空気 Temp 46°f
  • Sea Pressure 1019mb
  • East Hatteras - 150 Nm East Of Cape Hatteras
  • East Hatteras - 150 Nm East Of Cape Hatteras

More Historic Weather Station data

Upgrade to MSW Pro to gain access to the past 30 days of data for over 8000 Wavebouys and Weather Stations around the globe.

Join Pro

Comparision Forecast

View Surf forecast
   
Thu 02/11 10:00am  -   -   -  29 40 mph 1019mb 69f 46f
9:50am 14.5ft 10s 7s 27 40 mph 1018.9mb 69f 46f
9:40am  -   -   -  29 40 mph 1018.9mb 69f 46f
9:30am 14.5ft  -  7s 29 40 mph 1018.8mb 69f 46f
9:20am  -   -   -  29 40 mph 1018.8mb 69f 46f
9:10am  -   -   -  31 43 mph 1018.5mb 69f 46f
9:00am  -   -   -  31 40 mph 1018.5mb 69f 46f
8:50am 16ft 9s 8s 29 40 mph 1018.3mb 69f 46f
8:40am  -   -   -  29 43 mph 1018.3mb 69f 46f
8:30am  -   -   -  31 45 mph 1018mb 69f 46f
8:20am  -   -   -  31 45 mph 1017.9mb 69f 47f
8:10am  -   -   -  31 43 mph 1017.5mb 69f 47f
8:00am  -   -   -  31 45 mph 1017.5mb 69f 47f
7:50am 15.5ft 11s 7s 34 43 mph 1017.3mb 69f 47f
7:40am  -   -   -  34 49 mph 1017mb 69f 47f
7:30am  -   -   -  31 40 mph 1016.6mb 69f 47f
7:20am  -   -   -  34 45 mph 1016.8mb 69f 47f
7:10am  -   -   -  34 43 mph 1016.5mb 69f 47f
7:00am  -   -   -  34 45 mph 1016.5mb 69f 48f
6:50am 15.5ft 11s 7s 34 47 mph 1016.4mb 69f 47f
6:40am  -   -   -  31 43 mph 1016.4mb 69f 47f
6:30am  -   -   -  34 43 mph 1016.4mb 69f 47f
6:20am  -   -   -  34 47 mph 1016mb 69f 47f
6:10am  -   -   -  34 45 mph 1016mb 69f 47f
6:00am  -   -   -  34 45 mph 1015.9mb 69f 47f
5:50am 15.5ft 11s 7s 34 45 mph 1015.8mb 69f 47f
5:40am 15.5ft  -  7s 34 45 mph 1015.5mb 69f 48f
5:30am  -   -   -  36 47 mph 1015.3mb 69f 48f
5:20am  -   -   -  31 43 mph 1015mb 69f 48f
5:10am  -   -   -  31 45 mph 1014.8mb 69f 47f
5:00am  -   -   -  34 45 mph 1014.8mb 69f 48f
4:50am 15ft 9s 7s 36 45 mph 1014.3mb 69f 47f
4:40am  -   -   -  36 47 mph 1014.3mb 69f 48f
4:30am  -   -   -  34 49 mph 1014mb 69f 49f
4:20am  -   -   -  36 47 mph 1014mb 69f 49f
4:10am  -   -   -  36 47 mph 1014mb 69f 48f
4:00am  -   -   -  38 49 mph 1013.9mb 69f 49f
3:50am 16ft 11s 7s 34 45 mph 1013.5mb 69f 49f
3:40am  -   -   -  36 49 mph 1013.4mb 69f 50f
3:30am  -   -   -  34 47 mph 1013.1mb 69f 50f
3:20am  -   -   -  34 45 mph 1013mb 69f 51f
3:10am  -   -   -  34 45 mph 1013mb 69f 52f
3:00am  -   -   -  34 43 mph 1012.6mb 69f 52f
2:50am 15ft 11s 7s 34 43 mph 1012.5mb 69f 52f
2:40am  -   -   -  34 45 mph 1012.3mb 69f 52f
2:30am  -   -   -  34 45 mph 1012mb 69f 51f
2:20am  -   -   -  36 47 mph 1011.9mb 69f 51f
2:10am  -   -   -  34 45 mph 1011.6mb - 50f
2:00am  -   -   -  29 40 mph 1011.9mb 69f 50f
1:50am 14.5ft 9s 7s 34 47 mph 1012mb 69f 49f
1:40am  -   -   -  27 40 mph 1012mb 69f 49f
1:30am  -   -   -  27 36 mph 1012.3mb 69f 48f
1:20am  -   -   -  31 38 mph 1012.4mb 69f 49f
1:10am  -   -   -  29 40 mph 1012mb 69f 50f
1:00am  -   -   -  31 40 mph 1012mb 69f 50f
12:50am 14ft 10s 7s 31 40 mph 1012mb 69f 50f
12:40am  -   -   -  31 43 mph 1011.9mb 69f 50f
12:30am  -   -   -  31 38 mph 1012mb 69f 50f
12:20am  -   -   -  29 49 mph 1011.9mb 69f 51f
12:10am  -   -   -  31 43 mph 1011.9mb 69f 51f
12:00am  -   -   -  31 40 mph 1011.5mb 69f 51f
Wed 02/10 11:50pm 14.5ft 11s 7s 31 40 mph 1011.4mb 69f 50f
11:40pm  -   -   -  29 40 mph 1011.4mb 69f 50f
11:30pm  -   -   -  29 40 mph - - 50f
11:20pm  -   -   -  29 43 mph 1011.5mb 69f 49f
11:10pm  -   -   -  31 43 mph 1011.9mb 69f 48f
11:00pm  -   -   -  27 43 mph 1011.5mb 69f 48f
10:50pm 14ft 10s 7s 29 40 mph 1011.5mb 69f 48f
10:40pm  -   -   -  29 40 mph 1011.5mb 69f 48f
10:30pm  -   -   -  31 40 mph 1011.1mb 69f 49f
10:20pm  -   -   -  29 38 mph 1010.9mb 69f 50f
10:10pm  -   -   -  25 36 mph 1010.9mb 69f 48f
10:00pm  -   -   -  31 45 mph 1011mb 69f 49f
9:50pm 15ft 8s 7s 31 38 mph 1010.5mb 69f 51f
9:40pm  -   -   -  31 43 mph 1010.8mb 69f 52f
9:30pm  -   -   -  29 40 mph 1010.5mb 69f 52f
9:20pm  -   -   -  29 38 mph 1010.5mb 69f 52f
9:10pm  -   -   -  29 43 mph 1010.4mb 69f 52f
9:00pm  -   -   -  29 38 mph 1010.3mb 69f 52f
8:50pm 13.5ft 11s 7s 31 40 mph 1010.5mb 69f 52f
8:40pm  -   -   -  31 43 mph 1010.3mb 69f 52f
8:30pm  -   -   -  29 43 mph 1010mb 69f 52f
8:20pm  -   -   -  25 34 mph 1010.3mb 69f 50f
8:10pm  -   -   -  18 36 mph 1010.5mb 69f 47f
8:00pm  -   -   -  25 34 mph 1010.8mb 69f 49f
7:50pm 13ft 10s 7s 22 31 mph 1010.5mb 69f 49f
7:40pm  -   -   -  25 36 mph 1010.5mb 69f 49f
7:30pm  -   -   -  25 36 mph 1010.4mb 69f 49f
7:20pm  -   -   -  27 36 mph 1010.3mb 69f 50f
7:10pm  -   -   -  27 36 mph 1010.4mb 69f 50f
7:00pm  -   -   -  29 38 mph 1010.5mb 69f 50f
6:50pm 12ft 10s 7s 29 36 mph 1010.3mb 69f 51f
6:40pm  -   -   -  29 38 mph 1010mb 69f 51f
6:30pm  -   -   -  29 40 mph 1010mb 69f 50f
6:20pm  -   -   -  27 38 mph 1010mb 69f 51f
6:10pm  -   -   -  27 40 mph 1010mb 69f 50f
6:00pm  -   -   -  20 31 mph 1010.3mb 69f 50f
5:50pm 13ft 9s 8s 22 31 mph 1010mb 69f 51f
5:40pm  -   -   -  22 29 mph 1010mb 69f 51f
5:30pm  -   -   -  25 34 mph 1010mb 69f 51f
5:20pm  -   -   -  25 34 mph 1009.8mb 69f 51f
5:10pm  -   -   -  22 36 mph 1009.8mb 69f 51f
5:00pm  -   -   -  22 31 mph 1009.8mb 69f 51f
4:50pm 14ft 10s 8s 25 34 mph 1009.6mb 69f 51f
4:40pm  -   -   -  22 31 mph 1009.8mb 69f 51f
4:30pm  -   -   -  25 36 mph 1009.6mb 69f 51f
4:20pm  -   -   -  25 34 mph 1009.8mb 69f 52f
4:10pm  -   -   -  25 31 mph 1009.8mb 69f 51f
4:00pm  -   -   -  25 36 mph 1009.8mb 69f 51f
3:50pm 14ft 11s 8s 25 34 mph 1009.8mb 69f 51f
3:40pm  -   -   -  25 38 mph 1009.6mb 69f 50f
3:30pm  -   -   -  22 34 mph 1009.5mb 69f 51f
3:20pm  -   -   -  25 34 mph 1009.4mb 69f 51f
3:10pm  -   -   -  25 36 mph 1009.3mb 69f 51f
3:00pm  -   -   -  25 34 mph 1009.4mb 69f 51f
2:50pm 15ft 10s 8s 27 36 mph 1009.4mb 69f 51f
2:40pm  -   -   -  27 36 mph 1009.5mb 69f 51f
2:30pm  -   -   -  27 36 mph 1009.5mb 69f 51f
2:20pm  -   -   -  27 36 mph 1009.5mb 69f 51f
2:10pm  -   -   -  29 36 mph 1009.5mb 69f 51f
2:00pm  -   -   -  27 38 mph 1009.5mb 69f 51f
1:50pm 15.5ft 11s 8s 29 38 mph 1009.5mb 69f 51f
1:40pm  -   -   -  29 38 mph 1009.6mb 69f 51f
1:30pm  -   -   -  29 43 mph 1009.8mb 69f 51f
1:20pm  -   -   -  29 40 mph 1009.6mb 69f 51f
1:10pm  -   -   -  31 40 mph 1009.6mb 69f 51f
1:00pm  -   -   -  31 43 mph 1009.8mb 69f 50f
12:50pm 17ft 8s 8s 31 43 mph 1009.9mb 69f 50f
12:40pm  -   -   -  31 43 mph 1009.8mb 69f 51f
12:30pm  -   -   -  31 40 mph 1009.8mb 69f 51f
12:20pm  -   -   -  31 43 mph 1010mb 69f 51f
12:10pm  -   -   -  31 40 mph 1010mb 69f 51f
12:00pm  -   -   -  31 40 mph 1010.1mb 69f 51f
11:50am 17.5ft 11s 8s 34 45 mph 1010.3mb 69f 51f
11:40am  -   -   -  34 45 mph 1010.3mb 69f 51f
11:30am  -   -   -  34 43 mph 1010.3mb 69f 51f
11:20am  -   -   -  34 47 mph 1010.3mb 69f 51f
11:10am  -   -   -  34 45 mph 1010.1mb 70f 52f
11:00am  -   -   -  34 45 mph 1010.1mb 70f 50f
10:50am 16.5ft 11s 8s 34 47 mph 1010.3mb 70f 51f
10:40am  -   -   -  34 45 mph 1010.3mb 70f 51f
10:30am  -   -   -  34 45 mph 1010.1mb 70f 51f
10:20am  -   -   -  34 43 mph 1009.9mb 70f 51f
10:10am  -   -   -  34 47 mph 1010.1mb 70f 51f
10:00am  -   -   -  34 47 mph 1010mb 70f 51f
9:50am 18.5ft 11s 8s 34 45 mph 1010mb 70f 51f
9:40am  -   -   -  34 45 mph 1009.8mb 70f 52f
9:30am  -   -   -  36 45 mph 1009.5mb 70f 51f
9:20am  -   -   -  31 45 mph 1009.5mb 70f 50f
9:10am  -   -   -  34 49 mph 1009.5mb 70f 51f
9:00am  -   -   -  36 43 mph 1009.1mb 70f 52f
8:50am 18.5ft 11s 8s 36 47 mph 1008.8mb 70f 53f
8:40am  -   -   -  34 47 mph 1008.5mb 70f 53f
8:30am  -   -   -  34 45 mph 1008.3mb 70f 54f
8:20am  -   -   -  34 47 mph 1008mb 70f 54f
8:10am  -   -   -  36 45 mph 1007.8mb 70f 54f
8:00am  -   -   -  29 43 mph 1007.8mb - -
7:50am 16ft 11s 8s 34 47 mph 1007.9mb 70f 53f
7:40am  -   -   -  34 47 mph 1007.8mb 70f 53f
7:30am  -   -   -  36 51 mph 1007.8mb 70f 54f
7:20am  -   -   -  29 47 mph 1007.3mb 70f 53f
7:10am  -   -   -  34 47 mph 1007.4mb 70f 53f
7:00am  -   -   -  34 45 mph 1007.4mb 70f 54f
6:50am 15.5ft 11s 8s 34 43 mph 1007mb 70f 54f
6:40am  -   -   -  36 45 mph 1007mb 70f 54f
6:30am  -   -   -  29 40 mph 1006.9mb 70f 53f
6:20am  -   -   -  34 47 mph 1007.1mb 70f 53f
6:10am  -   -   -  34 49 mph 1007mb 70f 53f
6:00am  -   -   -  25 40 mph 1007mb 70f 52f
5:50am 15ft 12s 7s 31 40 mph 1007.4mb 71f 52f
5:40am 15ft  -  7s 31 40 mph 1007mb 71f 53f
5:30am  -   -   -  34 43 mph 1007mb 71f 53f
5:20am  -   -   -  29 45 mph 1006.9mb 71f 53f
5:10am  -   -   -  29 40 mph 1006.9mb 71f 53f
5:00am  -   -   -  34 45 mph 1006.8mb 71f 52f
4:50am 15ft 12s 8s 31 47 mph 1006.8mb 71f 53f
4:40am  -   -   -  27 40 mph 1006.5mb 71f 53f
4:30am  -   -   -  29 38 mph 1006.5mb 71f 53f
4:20am  -   -   -  31 43 mph 1006.5mb 71f 53f
4:10am  -   -   -  29 43 mph 1006.5mb 71f 54f
4:00am  -   -   -  29 40 mph 1006.1mb 71f 54f
3:50am 14ft 12s 7s 27 45 mph 1006.3mb 71f 53f
3:40am  -   -   -  29 38 mph 1006.4mb 71f 54f
3:30am  -   -   -  29 40 mph 1006.4mb 71f 54f
3:20am  -   -   -  29 40 mph 1006.3mb 71f 54f
3:10am  -   -   -  27 38 mph 1006.4mb 71f 53f
3:00am  -   -   -  34 47 mph 1006.6mb 71f 54f
2:50am 15ft 11s 8s 29 43 mph 1006.4mb 71f 54f
2:40am  -   -   -  29 40 mph 1006.4mb 71f 53f
2:30am  -   -   -  31 38 mph 1006.6mb 71f 54f
2:20am  -   -   -  29 38 mph 1006.8mb 71f 54f
2:10am  -   -   -  29 38 mph 1006.8mb 71f 54f
2:00am  -   -   -  29 47 mph 1006.9mb - 53f
1:50am 16ft 11s 8s 29 43 mph 1007mb 71f 53f
1:40am  -   -   -  27 36 mph 1007mb 71f 53f
1:30am  -   -   -  27 34 mph 1007.1mb 71f 52f
1:20am  -   -   -  31 43 mph 1007.1mb 71f 53f
1:10am  -   -   -  31 49 mph 1007mb 71f 55f
1:00am  -   -   -  27 38 mph 1006.8mb 71f 55f
12:50am 16ft 11s 8s 25 36 mph 1006.5mb 71f 54f
12:40am  -   -   -  25 31 mph 1006.5mb 71f 55f
12:30am  -   -   -  25 34 mph 1006.3mb 71f 55f
12:20am  -   -   -  29 38 mph 1006.5mb 71f 55f
12:10am  -   -   -  29 38 mph 1006.4mb 71f 55f
12:00am  -   -   -  29 38 mph 1006.3mb 71f 55f
Tue 02/09 11:50pm 16ft 11s 8s 34 43 mph 1006.5mb 71f 56f
11:40pm  -   -   -  29 40 mph 1006.4mb 71f 55f
11:30pm  -   -   -  34 45 mph 1006.4mb 71f 55f
11:20pm  -   -   -  36 47 mph 1006mb 71f 56f
11:10pm  -   -   -  29 40 mph 1005.9mb 71f 56f
11:00pm  -   -   -  27 38 mph 1005.9mb 71f 55f
10:50pm 16ft 11s 8s 25 40 mph 1006mb 71f 54f
10:40pm  -   -   -  31 43 mph 1006.4mb 71f 55f
10:30pm  -   -   -  29 38 mph 1006mb 71f 55f
10:20pm  -   -   -  31 43 mph 1005.8mb 71f 56f
10:10pm  -   -   -  27 36 mph 1006mb 71f 54f
10:00pm  -   -   -  34 47 mph 1006.3mb 71f 54f
9:50pm 17.5ft 12s 8s 31 47 mph 1006.1mb 71f 55f
9:40pm  -   -   -  31 43 mph 1006mb 71f 54f
9:30pm  -   -   -  34 47 mph 1005.9mb 71f 55f
9:20pm  -   -   -  34 45 mph 1006mb 71f 54f
9:10pm  -   -   -  34 45 mph 1005.9mb 71f 55f
9:00pm  -   -   -  34 45 mph 1005.5mb 71f 55f
8:50pm 17.5ft 11s 8s 31 43 mph 1005.5mb 71f 55f
8:40pm  -   -   -  34 43 mph 1005.1mb 71f 55f
8:30pm  -   -   -  31 40 mph 1005mb 71f 55f
8:20pm  -   -   -  34 43 mph 1005mb 71f 55f
8:10pm  -   -   -  34 47 mph 1005mb 71f 54f
8:00pm  -   -   -  31 43 mph 1005mb 71f 55f
7:50pm 17.5ft 11s 8s 29 38 mph 1004.3mb 71f 56f
7:40pm  -   -   -  34 45 mph 1004.4mb 71f 56f
7:30pm  -   -   -  34 45 mph 1004.4mb 71f 56f
7:20pm  -   -   -  34 49 mph 1004.3mb 71f 56f
7:10pm  -   -   -  27 38 mph 1004.1mb 71f 55f
7:00pm  -   -   -  34 45 mph 1004.3mb 71f 55f
6:50pm 19.5ft 11s 9s 31 51 mph 1004.4mb 71f 55f
6:40pm  -   -   -  29 40 mph 1004.3mb 71f 55f
6:30pm  -   -   -  34 45 mph 1004.6mb 71f 56f
6:20pm  -   -   -  29 47 mph 1004mb 71f 57f
6:10pm  -   -   -  34 45 mph 1003.9mb 71f 57f
6:00pm  -   -   -  34 51 mph 1003.6mb 71f 58f
5:50pm 17.5ft 11s 8s 31 43 mph 1003.3mb 71f 59f
5:40pm  -   -   -  31 43 mph 1003.1mb 71f 59f
5:30pm  -   -   -  29 43 mph 1003.4mb 71f 58f
5:20pm  -   -   -  31 43 mph 1003.3mb 71f 59f
5:10pm  -   -   -  31 45 mph 1003.3mb 71f 59f
5:00pm  -   -   -  31 43 mph 1003.1mb 71f 58f
4:50pm 18ft 11s 8s 34 43 mph 1003.1mb 71f 59f
4:40pm  -   -   -  34 43 mph 1003mb 71f 60f
4:30pm  -   -   -  34 45 mph 1003mb 71f 60f
4:20pm  -   -   -  34 45 mph 1003mb 71f 59f
4:10pm  -   -   -  31 43 mph 1003mb 71f 58f
4:00pm  -   -   -  34 47 mph 1003.1mb 71f 58f
3:50pm 17.5ft 10s 8s 31 43 mph 1003mb 71f 59f
3:40pm  -   -   -  34 43 mph 1003mb 71f 58f
3:30pm  -   -   -  34 45 mph 1002.8mb 71f 60f
3:20pm  -   -   -  31 43 mph 1002.5mb 71f 59f
3:10pm  -   -   -  34 43 mph 1002.4mb 71f 59f
3:00pm  -   -   -  34 47 mph 1002.3mb 71f 59f
2:50pm 16.5ft 9s 8s 29 40 mph 1002mb 71f 59f
2:40pm  -   -   -  31 43 mph 1002mb 71f 59f
2:30pm  -   -   -  34 43 mph 1002mb 71f 59f
2:20pm  -   -   -  36 47 mph 1002mb 71f 59f
2:10pm  -   -   -  34 43 mph 1001.6mb 71f 60f
2:00pm  -   -   -  34 45 mph 1001.4mb 71f 59f
1:50pm 15ft 10s 8s 36 49 mph 1001.5mb 71f 59f
1:40pm  -   -   -  36 47 mph 1001.5mb 71f 60f
1:30pm  -   -   -  31 47 mph 1001.4mb 71f 58f
1:20pm  -   -   -  31 43 mph 1001.4mb 71f 58f
1:10pm  -   -   -  31 43 mph 1001.1mb 71f 59f
1:00pm  -   -   -  34 43 mph 1001.3mb 71f 59f
12:50pm 15.5ft 9s 8s 34 47 mph 1001.3mb 71f 58f
12:40pm  -   -   -  36 49 mph 1001.5mb 71f 58f
12:30pm  -   -   -  31 43 mph 1001.9mb 71f 58f
12:20pm  -   -   -  31 43 mph 1002mb 71f 57f
12:10pm  -   -   -  34 49 mph 1002.1mb 71f 55f
12:00pm  -   -   -  27 45 mph 1002.5mb 71f 57f
11:50am 14.5ft 9s 8s 16 22 mph 1002mb 71f 55f
11:40am  -   -   -  25 36 mph 1002.1mb 71f 55f
11:30am  -   -   -  31 43 mph 1002.8mb 71f 56f
11:20am  -   -   -  29 43 mph 1002.5mb 71f 57f
11:10am  -   -   -  25 38 mph 1002.3mb 71f 56f
11:00am  -   -   -  31 43 mph 1002.4mb 71f 56f
10:50am 14ft 9s 7s 29 43 mph 1002.3mb 71f 57f
10:40am  -   -   -  31 47 mph 1002mb 71f 57f
10:30am  -   -   -  29 40 mph 1001.8mb 71f 57f
10:20am  -   -   -  34 45 mph 1001.8mb 71f 57f
10:10am  -   -   -  29 40 mph 1001.6mb 71f 56f
10:00am  -   -   -  34 45 mph 1001.6mb 71f 55f
9:50am 13ft 15s 7s 29 40 mph 1001.5mb 71f 55f
9:40am  -   -   -  29 45 mph 1001.5mb 71f 57f
9:30am  -   -   -  27 36 mph 1000.8mb 71f 58f
9:20am  -   -   -  31 40 mph 1001mb 71f 57f
9:10am  -   -   -  34 45 mph 1001mb 71f 55f
9:00am  -   -   -  31 43 mph 1001mb 71f 55f
8:50am 15ft 14s 8s 29 40 mph 1001mb 71f 56f
8:40am  -   -   -  31 43 mph 1000.6mb 71f 58f
8:30am  -   -   -  31 40 mph 1000.5mb 71f 58f
8:20am  -   -   -  29 40 mph 1000.1mb 71f 58f
8:10am  -   -   -  31 38 mph 1000.3mb 71f 58f
8:00am  -   -   -  29 36 mph 1000mb 71f 57f
7:50am 14ft 14s 8s 29 36 mph 1000mb 71f 57f
7:40am  -   -   -  27 38 mph 999.9mb 71f 58f
7:30am  -   -   -  25 34 mph 999.8mb 71f 59f
7:20am  -   -   -  27 34 mph 999.3mb 71f 59f
7:10am  -   -   -  25 34 mph 998.9mb 71f 59f
7:00am  -   -   -  29 36 mph 999.1mb 71f 59f
6:50am 14ft 15s 8s 29 36 mph 999.1mb 71f 59f
6:40am  -   -   -  29 36 mph 998.9mb 71f 59f
6:30am  -   -   -  31 40 mph 998.5mb 71f 59f
6:20am  -   -   -  31 40 mph 998.5mb 71f 59f
6:10am  -   -   -  29 38 mph 997.9mb 71f 59f
6:00am  -   -   -  27 31 mph 997.8mb 71f 59f
5:50am 14.5ft 13s 9s 25 31 mph 997.5mb 71f 59f
5:40am  -   -   -  27 34 mph 997mb 71f 60f
5:30am  -   -   -  20 34 mph 997.1mb 71f 62f
5:20am  -   -   -  20 29 mph 997.1mb 71f 60f
5:10am  -   -   -  22 34 mph 997.4mb 71f 60f
5:00am  -   -   -  22 31 mph 997.5mb 71f 60f
4:50am 12ft 14s 9s 22 31 mph 997.9mb 71f 61f
4:40am  -   -   -  22 31 mph 997.8mb 71f 60f
4:30am  -   -   -  20 31 mph 998mb 71f 60f
4:20am  -   -   -  18 27 mph 998.3mb 71f 59f
4:10am  -   -   -  16 22 mph 998.5mb 71f 59f
4:00am  -   -   -  16 22 mph 998.9mb 71f 58f
3:50am 12ft 15s 8s 16 27 mph 999.1mb 71f 58f
3:40am  -   -   -  13 20 mph 999.5mb 71f 58f
3:30am  -   -   -  16 22 mph 1000mb 71f 58f
3:20am  -   -   -  16 25 mph 1000mb 71f 58f
3:10am  -   -   -  18 22 mph 999.9mb 71f 58f
3:00am  -   -   -  18 25 mph 1000.3mb 71f 57f
2:50am 12.5ft 15s 8s 20 27 mph 1000.5mb 72f 57f
2:40am  -   -   -  22 29 mph 1000.6mb 72f 57f
2:30am  -   -   -  25 36 mph 1000.9mb 71f 58f
2:20am  -   -   -  22 29 mph 1000.5mb 72f 59f
2:10am  -   -   -  25 34 mph 1000.8mb 71f 59f
2:00am  -   -   -  25 36 mph 1001.4mb 71f 63f
1:50am 12.5ft 15s 9s 22 31 mph 1000.9mb 71f 62f
1:40am  -   -   -  20 31 mph 1001.5mb 71f 62f
1:30am  -   -   -  18 27 mph 1001.6mb 71f 61f
1:20am  -   -   -  16 25 mph 1002mb 71f 60f
1:10am  -   -   -  13 20 mph 1002.1mb 71f 60f
1:00am  -   -   -  9 18 mph 1002.5mb 71f 58f
12:50am 11.5ft 15s 8s 9 16 mph 1002.9mb 71f 57f
12:40am  -   -   -  11 18 mph 1003.5mb 71f 57f
12:30am  -   -   -  11 18 mph 1004.1mb 71f 57f
12:20am  -   -   -  9 16 mph 1004.4mb 71f 57f
12:10am  -   -   -  11 18 mph 1004.4mb 71f 56f
12:00am  -   -   -  13 25 mph 1004.3mb 71f 56f
Mon 02/08 11:50pm 11ft 15s 8s 11 27 mph 1004.5mb 71f 60f
11:40pm  -   -   -  7 13 mph 1004mb 71f 60f
11:30pm  -   -   -  4 13 mph 1003.5mb 71f 60f
11:20pm  -   -   -  4 13 mph 1004.4mb 72f 60f
11:10pm  -   -   -  7 13 mph 1004.8mb 71f 60f
11:00pm  -   -   -  7 16 mph 1005mb 71f 60f
10:50pm 12ft 15s 8s 7 16 mph 1005mb 71f 60f
10:40pm  -   -   -  7 13 mph 1005.3mb 71f 59f
10:30pm  -   -   -  7 16 mph 1005.5mb 71f 59f
10:20pm  -   -   -  7 13 mph 1005.5mb 71f 59f
10:10pm  -   -   -  9 18 mph 1006mb 71f 59f
10:00pm  -   -   -  11 22 mph 1006.3mb 71f 59f
9:50pm 13.5ft 14s 8s 13 20 mph 1006.5mb 71f 59f
9:40pm  -   -   -  16 25 mph 1006.6mb 71f 59f
9:30pm  -   -   -  20 29 mph 1007mb 71f 60f
9:20pm  -   -   -  16 25 mph 1007mb 71f 60f
9:10pm  -   -   -  13 20 mph 1006.6mb 71f 60f
9:00pm  -   -   -  16 25 mph 1006.5mb 71f 60f
8:50pm 13ft 15s 8s 16 27 mph 1007mb 71f 60f
8:40pm  -   -   -  16 22 mph 1007mb 71f 60f
8:30pm  -   -   -  18 27 mph 1007mb 71f 60f
8:20pm  -   -   -  18 25 mph 1007.4mb 71f 60f
8:10pm  -   -   -  20 27 mph 1007.4mb 71f 60f
8:00pm  -   -   -  18 27 mph 1007.4mb 71f 60f
7:50pm 13ft 15s 8s 20 29 mph 1007.4mb - 60f
7:40pm  -   -   -  22 29 mph 1007.6mb 71f 60f
7:30pm  -   -   -  22 31 mph 1007.8mb 71f 60f
7:20pm  -   -   -  20 29 mph 1007.8mb 71f 59f
7:10pm  -   -   -  22 29 mph 1007.9mb 71f 59f
7:00pm  -   -   -  22 29 mph 1008mb 71f 59f
6:50pm 14ft 13s 9s 22 29 mph 1008mb 71f 59f
6:40pm  -   -   -  22 29 mph 1007.9mb 71f 58f
6:30pm  -   -   -  22 29 mph 1008mb 71f 58f
6:20pm  -   -   -  20 25 mph 1007.9mb 71f 58f
6:10pm  -   -   -  20 27 mph 1007.8mb 71f 58f
6:00pm  -   -   -  22 31 mph 1007.8mb 71f 58f
5:50pm 13.5ft 13s 8s 22 29 mph 1007.9mb 71f 58f
5:40pm  -   -   -  22 31 mph 1007.8mb 71f 58f
5:30pm  -   -   -  22 31 mph 1007.8mb 71f 58f
5:20pm  -   -   -  22 29 mph 1007.6mb 71f 58f
5:10pm  -   -   -  22 31 mph 1007.5mb 71f 58f
5:00pm  -   -   -  25 29 mph 1007.5mb 71f 58f
4:50pm 14ft 11s 8s 22 31 mph 1007.4mb 71f 58f
4:40pm  -   -   -  22 31 mph 1007.3mb 71f 58f
4:30pm  -   -   -  22 29 mph 1007mb 72f 59f
4:20pm  -   -   -  22 29 mph 1006.9mb 72f 59f
4:10pm  -   -   -  22 29 mph 1006.8mb 72f 59f
4:00pm  -   -   -  25 31 mph 1006.5mb 71f 59f
3:50pm 14ft 11s 8s 25 31 mph 1006.5mb 72f 59f
3:40pm  -   -   -  25 31 mph 1006.3mb 71f 60f
3:30pm  -   -   -  25 31 mph 1006mb 71f 59f
3:20pm  -   -   -  25 31 mph 1006mb 71f 60f
3:10pm  -   -   -  25 34 mph 1006mb 71f 60f
3:00pm  -   -   -  25 34 mph 1006mb 71f 60f
2:50pm 14.5ft 12s 8s 25 34 mph 1005.9mb 71f 60f
2:40pm  -   -   -  25 36 mph 1005.8mb 71f 60f
2:30pm  -   -   -  27 34 mph 1005.6mb 71f 60f
2:20pm  -   -   -  27 36 mph 1005.5mb 71f 60f
2:10pm  -   -   -  27 34 mph 1005.5mb 71f 60f
2:00pm  -   -   -  27 34 mph 1005.5mb 71f 60f
1:50pm 16.5ft 11s 8s 27 36 mph 1005.5mb 71f 60f
1:40pm  -   -   -  27 36 mph 1005.4mb 71f 60f
1:30pm  -   -   -  27 38 mph 1005.1mb 71f 60f
1:20pm  -   -   -  27 34 mph 1005mb 71f 60f
1:10pm  -   -   -  27 34 mph 1004.6mb 71f 60f
1:00pm  -   -   -  27 34 mph 1004.5mb 71f 60f
12:50pm 17.5ft 11s 8s 27 36 mph 1004.5mb 71f 60f
12:40pm  -   -   -  27 34 mph 1004.5mb 71f 60f
12:30pm  -   -   -  29 36 mph 1004.5mb 71f 60f
12:20pm  -   -   -  29 38 mph 1004.5mb 71f 60f
12:10pm  -   -   -  29 38 mph 1004.4mb 71f 60f
12:00pm  -   -   -  29 36 mph 1004.5mb 71f 60f
11:50am 18.5ft 11s 8s 29 38 mph 1004.5mb 71f 60f
11:40am  -   -   -  31 40 mph 1004.4mb 71f 60f
11:30am  -   -   -  31 40 mph 1004.4mb 71f 60f
11:20am  -   -   -  34 40 mph 1004.4mb 71f 60f
11:10am  -   -   -  31 43 mph 1004.1mb 71f 59f
11:00am  -   -   -  34 47 mph 1004.3mb 71f 59f
10:50am 18.5ft 11s 8s 31 43 mph 1004mb 71f 59f
10:40am  -   -   -  31 43 mph 1003.6mb 71f 59f
10:30am  -   -   -  34 43 mph 1003.6mb 71f 60f
10:20am  -   -   -  31 43 mph 1003.3mb 71f 61f
10:10am  -   -   -  31 40 mph 1003mb 71f 61f
10:00am  -   -   -  31 43 mph 1002.8mb 71f 61f
9:50am 21.5ft 13s 8s 34 40 mph 1002.3mb 71f 60f
9:40am  -   -   -  34 43 mph 1002mb 71f 60f
9:30am  -   -   -  34 43 mph 1001.8mb 71f 61f
9:20am  -   -   -  34 43 mph 1001.5mb 71f 60f
9:10am  -   -   -  36 49 mph 1001.3mb 71f 61f
9:00am  -   -   -  36 47 mph 1001mb 71f 60f
8:50am 21.5ft 12s 8s 36 47 mph 1000.6mb 71f 61f
8:40am  -   -   -  38 49 mph 1000.4mb - 60f
8:30am  -   -   -  38 47 mph 1000.4mb - 60f
8:20am  -   -   -  36 49 mph 1000.1mb - 60f
8:10am  -   -   -  38 49 mph 999.8mb 71f 60f
8:00am  -   -   -  38 54 mph 999.4mb 71f 60f
7:50am 24.5ft 11s 8s 38 51 mph 999mb 71f 60f
7:40am  -   -   -  38 47 mph 998.5mb 71f 60f
7:30am  -   -   -  38 51 mph 998.1mb 71f 61f
7:20am  -   -   -  38 51 mph 997.5mb 71f 60f
7:10am  -   -   -  38 51 mph 997mb 71f 61f
7:00am  -   -   -  40 51 mph 996.9mb 71f 61f
6:50am 27.5ft 11s 9s 40 56 mph 996.4mb - 60f
6:40am  -   -   -  43 58 mph 995.8mb - 60f
6:30am  -   -   -  43 56 mph 995.3mb 71f 60f
6:20am  -   -   -  45 56 mph 994.9mb 71f 61f
6:10am  -   -   -  45 56 mph 994.4mb 71f 60f
6:00am  -   -   -  49 63 mph 993.9mb 71f 59f
5:50am 28ft 10s 9s 47 65 mph 992.9mb 71f 58f
5:40am  -   -   -  51 69 mph 992.4mb 71f 58f
5:30am  -   -   -  54 72 mph 991.8mb - 58f
5:20am  -   -   -  51 72 mph 991mb 71f 58f
5:10am  -   -   -  54 76 mph 990mb 71f 58f
5:00am  -   -   -  51 72 mph 989.4mb 71f 59f
4:50am 18.5ft 11s 7s 54 72 mph 988.5mb 71f 59f
4:40am  -   -   -  54 69 mph 987.8mb 71f 60f
4:30am  -   -   -  51 67 mph 986.3mb 71f 61f
4:20am  -   -   -  51 72 mph 985.3mb 71f 62f
4:10am  -   -   -  49 65 mph 984.5mb 71f 63f
4:00am  -   -   -  47 63 mph 983.5mb 71f 64f
3:50am 16ft 11s 9s 43 63 mph 982.6mb 71f 65f
3:40am  -   -   -  25 47 mph 981.8mb 71f 64f
3:30am  -   -   -  20 34 mph 982.1mb 71f 65f
3:20am  -   -   -  16 22 mph 982.5mb 71f 65f
3:10am  -   -   -  13 20 mph 982.6mb 71f 65f
3:00am  -   -   -  11 20 mph 982.6mb 71f 64f
2:50am 16.5ft 10s 8s 13 20 mph 982.8mb 71f 64f
2:40am  -   -   -  11 18 mph 982.8mb 71f 64f
2:30am  -   -   -  7 16 mph 982.8mb 71f 64f
2:20am  -   -   -  7 13 mph 982.9mb 71f 64f
2:10am  -   -   -  9 16 mph 982.9mb 71f 64f
2:00am  -   -   -  9 16 mph 983mb 71f 64f
1:50am 15.5ft 8s 8s 9 16 mph 983mb 71f 64f
1:40am  -   -   -  11 18 mph 983mb 71f 64f
1:30am  -   -   -  13 20 mph 983mb 71f 64f
1:20am  -   -   -  13 20 mph 983.3mb 71f 64f
1:10am  -   -   -  16 25 mph 983.4mb 71f 65f
1:00am  -   -   -  16 22 mph 983.5mb 71f 65f
12:50am 15.5ft 11s 8s 18 25 mph 983.5mb 71f 65f
12:40am  -   -   -  20 29 mph 983.8mb 71f 65f
12:30am  -   -   -  20 27 mph 984mb 71f 65f
12:20am  -   -   -  20 27 mph 984.1mb 71f 65f
12:10am  -   -   -  22 31 mph 984.1mb 71f 66f
12:00am  -   -   -  22 31 mph 984.5mb 71f 66f
Sun 02/07 11:50pm 16.5ft 11s 8s 20 27 mph 984.8mb 71f 66f
11:40pm  -   -   -  18 31 mph 985mb 71f 65f
11:30pm  -   -   -  20 29 mph 985mb 71f 65f
11:20pm  -   -   -  20 31 mph 985.3mb 71f 65f
11:10pm  -   -   -  20 27 mph 985.5mb 71f 64f
11:00pm  -   -   -  22 34 mph 985.9mb 71f 63f
10:50pm 14ft 11s 8s 31 40 mph 986.3mb 71f 65f
10:40pm  -   -   -  27 38 mph 986.1mb 71f 67f
10:30pm  -   -   -  27 34 mph 986.4mb 71f 67f
10:20pm  -   -   -  27 38 mph 986.5mb 71f 67f
10:10pm  -   -   -  29 40 mph 986.8mb 71f 67f
10:00pm  -   -   -  29 40 mph 987mb 71f 67f
9:50pm 17.5ft 11s 8s 29 40 mph 987mb 71f 67f
9:40pm  -   -   -  29 40 mph 987mb 71f 67f
9:30pm  -   -   -  29 36 mph 987.1mb 71f 67f
9:20pm  -   -   -  29 40 mph 987.1mb 71f 67f
9:10pm  -   -   -  29 36 mph 987.3mb 71f 67f
9:00pm  -   -   -  29 36 mph 987.6mb 71f 68f
8:50pm 16.5ft 11s 8s 29 38 mph 988mb 71f 69f
8:40pm  -   -   -  27 38 mph 988.4mb 71f 68f
8:30pm  -   -   -  22 29 mph 988.9mb 71f 67f
8:20pm  -   -   -  29 38 mph 989.1mb - 67f
8:10pm  -   -   -  27 40 mph 989.3mb 71f 69f
8:00pm  -   -   -  22 31 mph 989.4mb 71f 69f
7:50pm 19.5ft 11s 8s 22 29 mph 989.6mb 71f 68f
7:40pm  -   -   -  25 34 mph 989.9mb 71f 68f
7:30pm  -   -   -  29 38 mph 990.1mb 71f 70f
7:20pm  -   -   -  27 36 mph 990mb 71f 71f
7:10pm  -   -   -  25 34 mph 989.9mb 71f 70f
7:00pm  -   -   -  29 38 mph 990mb 71f 68f
6:50pm 20ft 11s 8s 34 43 mph 989.8mb 71f 67f
6:40pm  -   -   -  36 45 mph 990.8mb 71f 66f
6:30pm  -   -   -  36 45 mph 991mb 71f 66f
6:20pm  -   -   -  36 49 mph 992mb 71f 65f
6:10pm  -   -   -  38 49 mph 992.6mb 71f 65f
6:00pm  -   -   -  40 54 mph 993mb 71f 65f
5:50pm 21.5ft 11s 8s 38 54 mph 993mb 71f 65f
5:40pm  -   -   -  43 51 mph 993.5mb 71f 64f
5:30pm  -   -   -  38 51 mph 993.9mb 71f 64f
5:20pm  -   -   -  43 54 mph 994.1mb 71f 64f
5:10pm  -   -   -  43 56 mph 994mb 71f 63f
5:00pm  -   -   -  43 56 mph 994.4mb 71f 63f
4:50pm 20.5ft 10s 8s 45 56 mph 995mb 71f 63f
4:40pm 20.5ft  -  8s 45 56 mph 995mb 71f 63f
4:30pm  -   -   -  45 58 mph 995.5mb - 62f
4:20pm  -   -   -  43 54 mph 995.9mb 71f 63f
4:10pm  -   -   -  43 56 mph 996.3mb 71f 63f